NK0V Weather Reports


time (UTC)temp
C
wind
direction
speed
KPH
gust
KPH
rain 1hr
cm
rain 24hr
cm
rain mn
cm
humidity
%
barometer
mb
20260502140105 6 157 8.0 14.5 0.00 0.00 0.00 62 1018.3
20260502130555 1 229 4.8 9.7 0.00 0.00 0.00 76 1018.8
20260502130104 1 213 3.2 9.7 0.00 0.00 0.00 77 1018.8
20260502123555 0 215 1.6 8.0 0.00 0.00 0.00 80 1018.9
20260502123056 -1 216 1.6 6.4 0.00 0.00 0.00 80 1018.8
20260502122556 -1 183 1.6 6.4 0.00 0.00 0.00 79 1018.9
20260502122056 -1 201 0.0 6.4 0.00 0.00 0.00 78 1018.9
20260502121558 -1 0 0.0 4.8 0.00 0.00 0.00 78 1019.0
20260502121056 -1 0 0.0 3.2 0.00 0.00 0.00 77 1018.9
20260502120559 -2 0 0.0 3.2 0.00 0.00 0.00 77 1019.0
20260502120105 -2 0 0.0 3.2 0.00 0.00 0.00 77 1019.0
20260502115556 -2 0 0.0 3.2 0.00 0.00 0.00 76 1019.1
20260502115056 -2 144 0.0 3.2 0.00 0.00 0.00 76 1018.9
20260502114558 -2 144 0.0 3.2 0.00 0.00 0.00 76 1018.9
20260502114056 -2 143 1.6 3.2 0.00 0.00 0.00 76 1018.9
20260502113556 -2 143 1.6 3.2 0.00 0.00 0.00 77 1018.9
20260502113059 -2 143 1.6 4.8 0.00 0.00 0.00 76 1018.9
20260502112557 -2 143 1.6 6.4 0.00 0.00 0.00 76 1018.9
20260502112057 -2 160 3.2 6.4 0.00 0.00 0.00 76 1018.8
20260502111557 -2 167 1.6 4.8 0.00 0.00 0.00 76 1018.8
20260502111055 -2 167 1.6 4.8 0.00 0.00 0.00 76 1018.9
20260502110558 -1 167 3.2 4.8 0.00 0.00 0.00 76 1018.9
20260502110100 -1 167 3.2 4.8 0.00 0.00 0.00 76 1018.9
20260502105559 -1 167 1.6 4.8 0.00 0.00 0.00 76 1019.0
20260502105057 -1 167 1.6 4.8 0.00 0.00 0.00 76 1018.9
20260502104558 -1 167 1.6 4.8 0.00 0.00 0.00 76 1019.0
20260502104056 -1 167 1.6 4.8 0.00 0.00 0.00 76 1019.0
20260502103556 -1 167 1.6 4.8 0.00 0.00 0.00 76 1019.1
20260502103100 -1 167 3.2 4.8 0.00 0.00 0.00 76 1019.2
20260502102556 -1 167 1.6 4.8 0.00 0.00 0.00 76 1019.3
20260502102055 -1 167 1.6 4.8 0.00 0.00 0.00 76 1019.3
20260502101557 -1 167 0.0 1.6 0.00 0.00 0.00 75 1019.2
20260502101057 -1 0 0.0 4.8 0.00 0.00 0.00 76 1019.4
20260502100557 -1 167 0.0 4.8 0.00 0.00 0.00 76 1019.3
20260502100104 -1 167 0.0 4.8 0.00 0.00 0.00 76 1019.4
20260502091059 -1 0 0.0 0.0 0.00 0.00 0.00 73 1019.4
20260502090559 -1 0 0.0 0.0 0.00 0.00 0.00 73 1019.3
20260502080108 0 221 1.6 6.4 0.00 0.00 0.00 72 1019.1
20260502071056 0 196 3.2 9.7 0.00 0.00 0.00 70 1019.5
20260502070556 0 182 0.0 4.8 0.00 0.00 0.00 70 1019.4
20260502070056 0 0 0.0 1.6 0.00 0.00 0.00 70 1019.5
20260502065556 0 0 0.0 1.6 0.00 0.00 0.00 70 1019.4
20260502065057 0 0 0.0 1.6 0.00 0.00 0.00 70 1019.5
20260502064602 0 38 0.0 1.6 0.00 0.00 0.00 70 1019.5
20260502064055 0 0 0.0 0.0 0.00 0.00 0.00 70 1019.6
20260502063556 0 0 0.0 0.0 0.00 0.00 0.00 70 1019.6
20260502063055 0 0 0.0 0.0 0.00 0.00 0.00 70 1019.7
20260502062556 0 0 0.0 0.0 0.00 0.00 0.00 69 1019.7
20260502062056 1 0 0.0 0.0 0.00 0.00 0.00 69 1019.6
20260502061557 1 0 0.0 0.0 0.00 0.00 0.00 69 1019.7
20260502061056 1 0 0.0 0.0 0.00 0.00 0.00 68 1019.7
20260502060556 1 0 0.0 0.0 0.00 0.00 0.00 68 1019.7
20260502060055 1 0 0.0 0.0 0.00 0.00 0.00 68 1019.8
20260502055558 1 0 0.0 0.0 0.00 0.00 0.00 67 1019.9
20260502055058 1 0 0.0 0.0 0.00 0.00 0.00 67 1019.9
20260502054559 1 0 0.0 0.0 0.00 0.00 0.00 67 1019.9
20260502054101 1 0 0.0 0.0 0.00 0.00 0.00 67 1019.8
20260502053559 1 0 0.0 1.6 0.00 0.00 0.00 67 1019.9
20260502053055 1 0 0.0 1.6 0.00 0.00 0.00 66 1019.9
20260502052600 1 0 0.0 0.0 0.00 0.00 0.00 66 1019.9
20260502052057 2 0 0.0 0.0 0.00 0.00 0.00 66 1019.9
20260502051556 2 0 0.0 0.0 0.00 0.00 0.00 66 1019.9
20260502051057 2 0 0.0 0.0 0.00 0.00 0.00 66 1019.9
20260502050556 2 0 0.0 0.0 0.00 0.00 0.00 66 1019.9
20260502050058 2 0 0.0 0.0 0.00 0.00 0.00 66 1019.9
20260502045555 2 0 0.0 0.0 0.00 0.00 0.00 66 1020.0
20260502045058 2 0 0.0 0.0 0.00 0.00 0.00 65 1019.9
20260502044556 2 0 0.0 0.0 0.00 0.00 0.00 63 1019.9
20260502044100 3 0 0.0 0.0 0.00 0.00 0.00 63 1019.9
20260502043557 3 0 0.0 0.0 0.00 0.00 0.00 62 1020.1
20260502043059 3 0 0.0 1.6 0.00 0.00 0.00 63 1020.1
20260502042557 3 0 0.0 3.2 0.00 0.00 0.00 63 1020.1
20260502042058 3 0 0.0 3.2 0.00 0.00 0.00 63 1020.2
20260502041556 3 38 0.0 3.2 0.00 0.00 0.00 63 1020.2
20260502041057 3 38 1.6 3.2 0.00 0.00 0.00 63 1020.2
20260502040558 3 38 0.0 3.2 0.00 0.00 0.00 63 1020.1
20260502040107 3 0 0.0 3.2 0.00 0.00 0.00 62 1020.1
20260502035556 3 38 1.6 3.2 0.00 0.00 0.00 62 1020.2
20260502035056 3 38 0.0 3.2 0.00 0.00 0.00 61 1020.2
20260502034557 3 38 1.6 3.2 0.00 0.00 0.00 61 1020.2
20260502034056 3 38 1.6 3.2 0.00 0.00 0.00 60 1020.2
20260502033555 4 38 0.0 3.2 0.00 0.00 0.00 60 1020.2
20260502033100 4 38 0.0 3.2 0.00 0.00 0.00 60 1020.1
20260502032556 4 0 0.0 3.2 0.00 0.00 0.00 59 1020.1
20260502032056 4 0 0.0 3.2 0.00 0.00 0.00 58 1020.0
20260502031619 5 0 0.0 3.2 0.00 0.00 0.00 57 1020.0
20260502031056 5 0 0.0 3.2 0.00 0.00 0.00 56 1020.1
20260502030556 5 0 0.0 3.2 0.00 0.00 0.00 56 1019.9
20260502030100 5 38 1.6 3.2 0.00 0.00 0.00 56 1019.9
20260502025555 5 38 0.0 3.2 0.00 0.00 0.00 56 1019.9
20260502025055 5 38 1.6 3.2 0.00 0.00 0.00 56 1019.8
20260502024557 5 38 0.0 3.2 0.00 0.00 0.00 55 1019.8
20260502024056 6 38 0.0 3.2 0.00 0.00 0.00 54 1019.8
20260502023557 6 38 0.0 1.6 0.00 0.00 0.00 53 1019.7
20260502023059 6 0 0.0 3.2 0.00 0.00 0.00 52 1019.7
20260502022555 6 0 0.0 3.2 0.00 0.00 0.00 52 1019.7
20260502022055 6 38 0.0 3.2 0.00 0.00 0.00 51 1019.6
20260502021558 6 35 0.0 3.2 0.00 0.00 0.00 51 1019.7
20260502021055 7 33 0.0 3.2 0.00 0.00 0.00 51 1019.6
20260502020556 7 32 0.0 3.2 0.00 0.00 0.00 50 1019.5
20260502020112 7 31 0.0 3.2 0.00 0.00 0.00 50 1019.4
20260502015559 7 27 1.6 4.8 0.00 0.00 0.00 49 1019.4
20260502015058 7 0 1.6 6.4 0.00 0.00 0.00 48 1019.3
20260502014557 8 12 1.6 6.4 0.00 0.00 0.00 48 1019.4
20260502014058 8 26 3.2 6.4 0.00 0.00 0.00 47 1019.3
20260502013559 8 25 1.6 6.4 0.00 0.00 0.00 47 1019.4
20260502013107 8 31 3.2 8.0 0.00 0.00 0.00 46 1019.4
20260502012556 8 26 3.2 8.0 0.00 0.00 0.00 45 1019.3
20260502012055 8 40 3.2 11.3 0.00 0.00 0.00 45 1019.4
20260502011610 8 32 4.8 11.3 0.00 0.00 0.00 45 1019.4
20260502011059 8 38 4.8 11.3 0.00 0.00 0.00 45 1019.3
20260502010556 8 339 6.4 11.3 0.00 0.00 0.00 44 1019.4
20260502005558 8 348 6.4 16.1 0.00 0.00 0.00 44 1019.2
20260502005058 9 9 6.4 16.1 0.00 0.00 0.00 44 1019.2
20260502004604 9 17 9.7 16.1 0.00 0.00 0.00 43 1019.1
20260502004055 9 30 8.0 16.1 0.00 0.00 0.00 43 1019.0
20260502003555 9 30 6.4 16.1 0.00 0.00 0.00 43 1019.1
20260502003134 9 5 8.0 16.1 0.00 0.00 0.00 42 1019.1
20260502002555 9 5 6.4 19.3 0.00 0.00 0.00 42 1019.0
20260502002056 9 15 9.7 19.3 0.00 0.00 0.00 42 1019.0
20260502001633 10 355 8.0 17.7 0.00 0.00 0.00 41 1019.0
20260502001101 10 11 9.7 17.7 0.00 0.00 0.00 42 1018.9
20260502000555 10 332 11.3 17.7 0.00 0.00 0.00 42 1018.9
20260502000056 10 5 6.4 17.7 0.00 0.00 0.00 42 1019.0
20260501235555 10 40 3.2 17.7 0.00 0.00 0.00 42 1019.0
20260501235056 10 360 9.7 17.7 0.00 0.00 0.00 42 1019.1
20260501234558 10 351 6.4 17.7 0.00 0.00 0.00 42 1018.9
20260501234058 10 360 4.8 17.7 0.00 0.00 0.00 41 1018.9
20260501233559 10 15 4.8 20.9 0.00 0.00 0.00 42 1019.0
20260501233101 10 9 9.7 20.9 0.00 0.00 0.00 41 1019.0
20260501232558 10 22 8.0 20.9 0.00 0.00 0.00 41 1018.9
20260501232058 10 355 11.3 22.5 0.00 0.00 0.00 40 1018.9
20260501231601 10 355 8.0 22.5 0.00 0.00 0.00 43 1018.9
20260501231055 10 5 9.7 22.5 0.00 0.00 0.00 42 1019.0
20260501230555 10 334 6.4 19.3 0.00 0.00 0.00 42 1018.9
20260501230104 10 22 6.4 19.3 0.00 0.00 0.00 42 1019.0
20260501225555 10 14 8.0 17.7 0.00 0.00 0.00 42 1018.9
20260501225054 10 5 6.4 17.7 0.00 0.00 0.00 41 1018.9
20260501224602 10 308 6.4 16.1 0.00 0.00 0.00 43 1019.0
20260501224054 10 319 6.4 20.9 0.00 0.00 0.00 41 1018.9
20260501223601 10 331 9.7 20.9 0.00 0.00 0.00 42 1018.9
20260501223058 10 9 9.7 20.9 0.00 0.00 0.00 41 1018.9
20260501222558 10 325 4.8 19.3 0.00 0.00 0.00 41 1018.8
20260501222056 10 40 6.4 20.9 0.00 0.00 0.00 42 1018.8
20260501221603 10 16 9.7 30.6 0.00 0.00 0.00 43 1018.9
20260501221055 10 360 6.4 30.6 0.00 0.00 0.00 43 1018.9
20260501220556 10 360 11.3 30.6 0.00 0.00 0.00 42 1018.9
20260501220058 10 44 11.3 25.7 0.00 0.00 0.00 41 1018.9
20260501215558 10 321 14.5 27.4 0.00 0.00 0.00 39 1019.0
20260501215056 11 13 11.3 27.4 0.00 0.00 0.00 41 1018.9
20260501214555 11 333 4.8 20.9 0.00 0.00 0.00 42 1018.9
20260501214057 10 329 8.0 20.9 0.00 0.00 0.00 40 1018.9
20260501213555 11 16 12.9 20.9 0.00 0.00 0.00 40 1018.9
20260501213106 11 5 6.4 22.5 0.00 0.00 0.00 39 1018.9
20260501212556 11 336 11.3 22.5 0.00 0.00 0.00 40 1019.0
20260501212054 11 43 6.4 19.3 0.00 0.00 0.00 38 1018.9
20260501211556 11 323 8.0 19.3 0.00 0.00 0.00 40 1018.9
20260501211059 11 343 4.8 19.3 0.00 0.00 0.00 43 1018.9
20260501210557 10 5 6.4 19.3 0.00 0.00 0.00 44 1018.9
20260501205556 10 26 8.0 22.5 0.00 0.00 0.00 45 1019.1
20260501205056 10 44 9.7 22.5 0.00 0.00 0.00 42 1019.1
20260501204557 10 27 9.7 20.9 0.00 0.00 0.00 44 1019.1
20260501204058 10 319 4.8 20.9 0.00 0.00 0.00 42 1019.2
20260501203557 10 24 9.7 22.5 0.00 0.00 0.00 41 1019.2
20260501203101 11 31 9.7 22.5 0.00 0.00 0.00 39 1019.2
20260501202557 11 32 11.3 20.9 0.00 0.00 0.00 40 1019.2
20260501202058 11 51 6.4 19.3 0.00 0.00 0.00 41 1019.3
20260501201559 11 281 6.4 24.1 0.00 0.00 0.00 42 1019.2
20260501201054 11 13 11.3 24.1 0.00 0.00 0.00 41 1019.3
20260501200557 11 346 4.8 14.5 0.00 0.00 0.00 42 1019.2
20260501200055 11 344 6.4 17.7 0.00 0.00 0.00 41 1019.2
20260501195558 11 346 6.4 19.3 0.00 0.00 0.00 45 1019.2
20260501195100 11 337 6.4 19.3 0.00 0.00 0.00 45 1019.3
20260501194558 11 318 4.8 20.9 0.00 0.00 0.00 46 1019.3
20260501194057 11 360 11.3 20.9 0.00 0.00 0.00 41 1019.2
20260501193559 11 355 6.4 20.9 0.00 0.00 0.00 42 1019.3
20260501193057 11 319 9.7 20.9 0.00 0.00 0.00 44 1019.2
20260501192557 11 330 8.0 20.9 0.00 0.00 0.00 43 1019.2
20260501192058 11 340 4.8 17.7 0.00 0.00 0.00 45 1019.2
20260501191558 11 15 6.4 22.5 0.00 0.00 0.00 47 1019.2
20260501191057 10 332 9.7 22.5 0.00 0.00 0.00 45 1019.2
20260501190557 10 39 12.9 20.9 0.00 0.00 0.00 43 1019.3
20260501185557 10 27 11.3 24.1 0.00 0.00 0.00 46 1019.3
20260501185103 10 355 11.3 24.1 0.00 0.00 0.00 43 1019.2
20260501184557 10 40 8.0 24.1 0.00 0.00 0.00 45 1019.3
20260501184058 10 348 11.3 24.1 0.00 0.00 0.00 46 1019.2
20260501183558 10 11 11.3 24.1 0.00 0.00 0.00 48 1019.3
20260501183055 10 22 11.3 24.1 0.00 0.00 0.00 46 1019.2
20260501182559 10 38 8.0 24.1 0.00 0.00 0.00 48 1019.2
20260501182100 10 38 11.3 24.1 0.00 0.00 0.00 45 1019.3
20260501181559 10 13 4.8 22.5 0.00 0.00 0.00 48 1019.2
20260501181057 10 50 11.3 22.5 0.00 0.00 0.00 46 1019.3
20260501180554 10 327 8.0 22.5 0.00 0.00 0.00 47 1019.3
20260501180057 10 325 4.8 16.1 0.00 0.00 0.00 49 1019.2
20260501175555 9 27 6.4 22.5 0.00 0.00 0.00 50 1019.4
20260501175057 9 18 8.0 22.5 0.00 0.00 0.00 50 1019.3
20260501174555 9 23 9.7 22.5 0.00 0.00 0.00 51 1019.4
20260501174057 9 26 9.7 20.9 0.00 0.00 0.00 48 1019.5
20260501173600 9 321 9.7 25.7 0.00 0.00 0.00 49 1019.4
20260501173104 8 324 9.7 25.7 0.00 0.00 0.00 50 1019.4
20260501172557 8 53 9.7 24.1 0.00 0.00 0.00 49 1019.5
20260501172058 8 21 14.5 24.1 0.00 0.00 0.00 48 1019.5
20260501171555 8 282 11.3 22.5 0.00 0.00 0.00 51 1019.5
20260501171057 7 14 9.7 22.5 0.00 0.00 0.00 51 1019.6
20260501170554 8 342 8.0 22.5 0.00 0.00 0.00 52 1019.6
20260501170056 8 291 8.0 22.5 0.00 0.00 0.00 51 1019.5
20260501165557 8 355 8.0 22.5 0.00 0.00 0.00 52 1019.6
20260501165055 8 342 11.3 22.5 0.00 0.00 0.00 51 1019.6
20260501164605 8 351 9.7 27.4 0.00 0.00 0.00 52 1019.6
20260501164054 8 39 16.1 27.4 0.00 0.00 0.00 51 1019.6
20260501163555 8 20 12.9 24.1 0.00 0.00 0.00 50 1019.6
20260501163057 8 340 11.3 24.1 0.00 0.00 0.00 53 1019.7
20260501162555 7 43 12.9 24.1 0.00 0.00 0.00 51 1019.6
20260501162055 8 333 12.9 24.1 0.00 0.00 0.00 51 1019.5
20260501161608 7 244 8.0 17.7 0.00 0.00 0.00 55 1019.5
20260501161054 7 319 8.0 20.9 0.00 0.00 0.00 52 1019.6
20260501160555 7 323 9.7 20.9 0.00 0.00 0.00 53 1019.5
20260501155556 7 355 6.4 22.5 0.00 0.00 0.00 54 1019.4
20260501155058 7 331 8.0 20.9 0.00 0.00 0.00 53 1019.4
20260501154605 7 42 9.7 24.1 0.00 0.00 0.00 53 1019.4
20260501154055 7 326 9.7 24.1 0.00 0.00 0.00 52 1019.4
20260501153557 7 360 14.5 24.1 0.00 0.00 0.00 51 1019.4
20260501153107 7 360 8.0 22.5 0.00 0.00 0.00 54 1019.4
20260501152555 7 313 9.7 22.5 0.00 0.00 0.00 55 1019.5
20260501152055 7 329 11.3 22.5 0.00 0.00 0.00 53 1019.4
20260501151559 6 305 8.0 22.5 0.00 0.00 0.00 55 1019.4
20260501151056 6 345 8.0 25.7 0.00 0.00 0.00 56 1019.4
20260501150556 6 330 9.7 25.7 0.00 0.00 0.00 56 1019.4
20260501150057 6 360 9.7 25.7 0.00 0.00 0.00 55 1019.4
20260501145604 6 322 9.7 25.7 0.00 0.00 0.00 56 1019.5
20260501145057 6 313 6.4 24.1 0.00 0.00 0.00 60 1019.5
20260501144604 5 349 11.3 24.1 0.00 0.00 0.00 58 1019.4
20260501144054 5 5 9.7 24.1 0.00 0.00 0.00 58 1019.5
20260501143557 5 349 11.3 24.1 0.00 0.00 0.00 58 1019.5
20260501143101 5 355 9.7 24.1 0.00 0.00 0.00 57 1019.5
20260501142555 5 331 8.0 24.1 0.00 0.00 0.00 58 1019.4
20260501142056 5 360 9.7 24.1 0.00 0.00 0.00 59 1019.3